Location: ?????
(31.9721°N, 35.0929°E)
Time: 05:35:16
(UTC+00:00)

Daily predictions for brighter satellites

Satellite Brightness Start Highest point End
(mag) Time Altitude Azimuth Time Altitude Azimuth Time Altitude Azimuth
Atlas Centaur 2 4.2 00:47:39 32° E 00:47:39 32° E 00:51:58 10° E
ATLAS 3B CENTAUR R/B 4.4 01:19:54 61° SW 01:22:44 69° S 01:48:16 10° ESE
CZ-2C R/B 3.9 01:38:17 10° NNE 01:40:57 31° NNE 01:40:57 31° NNE
NOSS 3-3 (A) 4.3 01:58:30 47° NNW 01:58:30 47° NNW 02:03:22 10° NNE
Cosmos 1656 Rocket 4.1 01:54:23 29° N 01:57:16 62° ENE 02:02:51 10° SSE
NOSS 3-3 (C) 4.3 01:58:32 48° NNW 01:58:32 48° NNW 02:03:29 10° NNE
Cosmos 2173 Rocket 4.4 01:53:03 10° N 01:59:11 60° E 02:05:11 10° SSE
H-2A R/B 3.4 01:57:59 10° NNE 02:02:23 51° E 02:03:39 38° SSE
Cosmos 1238 Rocket 4.4 02:01:16 10° N 02:05:56 40° ENE 02:09:48 10° SSE
OAO 2 Rocket 3.7 02:08:12 56° SSE 02:08:24 57° SSE 02:13:33 10° E
Cosmos 1484 Rocket 4.1 02:05:09 10° NNE 02:08:56 39° E 02:12:12 13° SSE
Cosmos 1850 Rocket 4.3 02:07:22 32° S 02:09:47 67° ESE 02:15:01 10° NNE
OAO 3 Rocket 3.3 02:10:16 72° SE 02:10:16 72° SE 02:14:55 10° ENE
Cosmos 1000 Rocket 4.3 02:12:42 35° SSW 02:15:28 72° W 02:21:42 10° N
Cosmos 1459 Rocket 3.9 02:11:56 10° N 02:18:13 88° E 02:24:34 10° S
BREEZE M DEB (TANK) 3.1 02:20:51 26° NW 02:25:40 73° SW 02:29:02 10° SE
CZ-4B R/B 3.2 02:23:29 10° NNE 02:26:10 48° NNE 02:26:10 48° NNE
Cosmos 2100 Rocket 3.8 02:21:31 10° N 02:27:38 70° W 02:33:43 10° S
Atlas Centaur 2 3.0 02:30:14 37° W 02:33:42 81° S 02:42:15 10° E
Cosmos 1862 3.3 02:31:40 10° N 02:35:39 79° E 02:39:37 10° S
Sich 1 2.9 02:33:51 10° N 02:38:11 86° W 02:42:32 10° S
Shenzhou-11 Module 4.2 02:38:54 16° NNE 02:38:54 16° NNE 02:40:33 10° ENE
ERBS 3.8 02:40:36 25° N 02:40:36 25° N 02:42:30 10° NNE
Meteor 1-31 Rocket 4.0 02:36:13 10° N 02:38:16 27° NNW 02:38:16 27° NNW
Cosmos 1741 Rocket 3.9 02:37:00 24° SSW 02:40:08 63° WNW 02:45:23 10° N
Cosmos 2123 Rocket 3.9 02:36:35 10° SSW 02:42:52 74° W 02:49:10 10° N
Cosmos 1151 Rocket 3.2 02:39:59 10° S 02:44:17 74° E 02:48:37 10° N
Cosmos 1340 4.1 02:42:59 10° N 02:46:31 38° E 02:50:02 10° SSE
Cosmos 1725 Rocket 4.1 02:40:36 10° N 02:46:54 81° E 02:53:14 10° S
PSLV R/B 3.8 02:44:31 10° NNE 02:48:22 81° ESE 02:52:18 10° S
ATLAS 5 CENTAUR R/B 4.1 02:47:57 10° SSE 02:50:57 20° ESE 02:54:04 10° ENE
Cosmos 1763 Rocket 4.4 02:48:59 10° N 02:54:09 50° ENE 02:59:14 10° SSE
Cosmos 1805 Rocket 4.1 02:51:19 10° NNW 02:55:16 35° W 02:59:13 10° SSW
Delta 2 Rocket 4.3 02:53:07 19° SSW 02:55:17 34° SSE 02:58:31 10° E
SKYMED 2 3.7 02:56:05 10° SSE 03:00:24 78° ENE 03:04:45 10° N
Cosmos 1864 Rocket 4.4 02:55:36 10° N 03:01:45 75° W 03:07:57 10° S
CZ-4B R/B 4.2 02:57:57 10° NNE 03:03:03 47° E 03:08:08 10° S
SL-08 R/B 4.4 02:59:11 10° NNW 03:05:12 67° W 03:11:12 10° S
Cosmos 2061 Rocket 4.1 03:01:06 10° NNW 03:07:04 51° W 03:13:00 10° SSW
Cosmos 1818 3.7 03:03:01 10° SW 03:08:13 52° WNW 03:13:33 10° NNE
CZ-4B DEB 4.2 03:02:53 10° NNE 03:08:22 89° WNW 03:13:48 10° SSW
STARLINK-1170 3.5 03:07:13 15° NNW 03:09:14 44° NE 03:11:52 10° ESE
Cosmos 1802 Rocket 4.5 03:07:37 10° NNW 03:13:27 38° W 03:19:13 10° SSW
Cosmos 1328 Rocket 3.8 03:09:36 10° SSW 03:13:51 45° W 03:18:06 10° N
Iridium 51 4.0 03:11:18 10° S 03:15:02 66° W 03:18:34 10° N
STARLINK-1165 4.5 03:12:00 10° NNW 03:15:19 39° NE 03:18:38 10° ESE
Cosmos 2016 Rocket 4.3 03:11:51 10° NNW 03:17:45 43° W 03:23:40 10° SSW
STARLINK-1169 4.3 03:14:58 10° NNW 03:18:19 42° NE 03:21:39 10° ESE
Cosmos 1447 Rocket 4.4 03:13:05 10° S 03:19:11 78° W 03:25:21 10° N
Cosmos 1933 3.4 03:15:55 10° SSW 03:19:55 55° W 03:23:56 10° N
Cosmos 1315 Rocket 3.1 03:16:32 10° SSW 03:20:16 41° W 03:23:59 10° N
CZ-2C R/B 4.3 03:19:19 10° NW 03:20:21 11° WNW 03:20:21 11° WNW
SOZ 4.1 03:19:23 14° NW 03:21:14 83° NE 03:25:02 10° SE
STARLINK-1178 4.2 03:17:55 10° NNW 03:21:18 45° NE 03:24:41 10° ESE
Cosmos 1833 Rocket 3.5 03:18:12 10° S 03:23:40 55° ESE 03:29:10 10° NNE
STARLINK-1120 4.0 03:20:48 10° NNW 03:24:14 49° NE 03:27:39 10° ESE
COSMOS 2406 3.1 03:19:07 10° SSW 03:24:46 74° WNW 03:30:26 10° NNE
Cosmos 2082 Rocket 4.1 03:21:43 10° SSE 03:26:43 34° ESE 03:31:44 10° NE
STARLINK-1131 3.9 03:23:49 10° NW 03:27:15 53° NE 03:30:42 10° ESE
ALOS 2.9 03:23:05 10° N 03:27:17 34° WNW 03:31:28 10° SW
ADEOS Rocket 3.8 03:23:15 10° SSE 03:29:30 64° ENE 03:36:31 10° N
STARLINK-1190 3.7 03:26:51 10° NW 03:30:19 58° NE 03:33:48 10° SE
Cosmos 2233 Rocket 4.0 03:25:10 10° N 03:31:26 70° W 03:37:41 10° S
USA 267 3.3 03:25:33 10° SSE 03:32:01 63° SW 03:38:29 10° NW
[s.n.45227] 4.1 03:29:32 10° SSW 03:32:01 36° SE 03:34:28 10° ENE
[s.n.45235] 4.1 03:29:33 10° SSW 03:32:03 36° SE 03:34:32 10° ENE
[s.n.45232] 3.7 03:30:06 10° SSW 03:32:03 32° SE 03:33:58 10° ENE
STARLINK-1235 3.7 03:30:12 10° SSW 03:32:08 32° SE 03:34:00 10° ENE
STARLINK-1246 4.0 03:29:45 10° SSW 03:32:13 35° SE 03:34:36 10° ENE
Helios 1A Rocket 3.2 03:33:06 10° NNE 03:37:13 74° ESE 03:41:16 10° S
GEOS 3 Rocket 4.2 03:32:22 10° NNE 03:37:15 38° NW 03:42:09 10° WSW
H-2A R/B 4.5 03:35:31 10° NW 03:37:21 12° WNW 03:39:10 10° W
[s.n.45195] 3.6 03:35:53 10° SSW 03:38:29 46° SE 03:41:02 10° NE
NOAA 6 4.0 03:33:23 10° N 03:38:29 63° WNW 03:43:31 10° SSW
STARLINK-1241 3.5 03:36:04 10° SSW 03:38:38 46° SE 03:41:07 10° NE
[s.n.45193] 3.5 03:36:47 10° SSW 03:39:22 48° SE 03:41:58 10° NE
STARLINK-1239 3.5 03:36:58 10° SSW 03:39:32 47° SE 03:42:02 10° NE
[s.n.45194] 3.4 03:37:42 10° SSW 03:40:19 50° SE 03:42:55 10° NE
STARLINK-1240 3.4 03:37:53 10° SSW 03:40:27 49° SE 03:42:59 10° NE
FENGYUN 3A 4.4 03:36:28 10° N 03:41:10 31° WNW 03:45:51 10° SW
[s.n.45185] 3.3 03:38:35 10° SSW 03:41:13 51° SE 03:43:50 10° NE
STARLINK-1216 3.3 03:38:47 10° SSW 03:41:22 51° SE 03:43:54 10° NE
[s.n.45190] 3.3 03:39:32 10° SSW 03:42:10 53° SE 03:44:45 10° NE
[s.n.45192] 3.3 03:39:35 10° SSW 03:42:14 54° SE 03:44:51 10° NE
STARLINK-1237 3.2 03:39:47 10° SSW 03:42:22 53° SE 03:44:55 10° NE
Cosmos 1515 Rocket 4.1 03:38:31 10° SSW 03:42:35 35° W 03:46:39 10° NNW
[s.n.45183] 3.2 03:40:23 10° SSW 03:43:01 55° SE 03:45:38 10° NE
STARLINK-1202 3.2 03:40:37 10° SSW 03:43:12 55° SE 03:45:46 10° NE
Cosmos 1633 Rocket 4.1 03:40:07 10° NW 03:43:41 24° W 03:47:15 10° SW
[s.n.45186] 3.0 03:43:13 10° SSW 03:45:54 62° SE 03:48:33 10° NE
STARLINK-1224 2.9 03:43:25 10° SSW 03:46:02 62° SE 03:48:37 10° NE
NOSS 3-4 (A) 4.4 03:39:24 10° NNW 03:46:40 69° ENE 03:54:34 10° SE
NOSS 3-4 (C) 4.4 03:39:31 10° NNW 03:46:47 69° ENE 03:54:38 10° SE
Cosmos 1606 3.9 03:43:52 10° SW 03:46:51 22° WNW 03:49:49 10° NNW
STARLINK-1225 2.9 03:44:19 10° SW 03:46:57 65° SE 03:49:33 10° NE
STARLINK-1230 2.8 03:45:17 10° SW 03:47:57 67° SE 03:50:32 10° NE
Cosmos 1486 Rocket 4.1 03:42:56 10° SSW 03:48:09 84° ESE 03:53:22 10° NNE
COSMO-SKYMED 1 3.5 03:44:54 10° SSW 03:48:32 26° W 03:52:11 10° NW
STARLINK-1243 2.7 03:46:12 10° SW 03:48:51 70° SE 03:51:27 10° NE
Meteor 1-26 Rocket 4.4 03:45:17 10° SSW 03:50:54 57° W 03:56:42 10° N
Okean O Rocket 1.9 03:47:02 10° N 03:51:10 44° WNW 03:55:17 10° SW
